GFSWCAN_sfc_rhum_057.txt.gz
RH
93 90 88 84 84 84 84 81 81 84 81 80 80 79 79 81 85 79 67 70 72 69 49 36 35 55 56 60 79 60 68 70 71 88 92 95 95 95 99 96 96 91 100 99 98 96 94 66 69 92 86 77 76 73
91 90 87 84 84 85 85 80 80 84 81 78 80 80 79 82 84 83 70 66 70 72 56 43 39 36 45 45 59 57 74 73 75 82 86 93 99 92 96 94 88 96 99 100 100 98 70 71 83 78 79 84 82 82
91 90 86 84 84 86 84 81 80 80 82 79 79 80 82 83 84 82 70 66 59 63 53 50 49 37 31 33 34 61 60 62 77 77 81 90 99 97 99 94 100 85 88 100 98 77 78 88 84 80 81 86 83 83
92 89 85 83 83 85 84 83 80 82 80 80 79 81 84 84 85 83 71 59 66 70 74 57 32 41 31 29 33 38 47 50 70 80 88 81 92 91 97 92 99 96 95 96 99 91 94 83 87 90 86 86 84 84
91 88 84 82 84 85 83 82 80 80 79 79 81 82 84 83 86 80 68 61 62 79 80 65 46 37 30 35 38 40 48 62 89 89 84 92 69 87 86 92 96 97 96 100 100 89 98 96 92 88 94 91 88 94
91 86 83 82 83 85 84 85 80 79 81 80 82 83 85 84 86 72 81 66 60 67 82 73 44 52 57 42 44 53 55 61 58 66 86 66 52 73 97 100 84 91 88 88 93 86 92 90 88 88 93 90 87 92
89 84 81 82 83 85 84 86 81 79 80 81 81 84 86 86 77 73 74 72 82 73 80 77 59 82 69 69 57 59 57 58 59 71 72 86 64 68 87 100 81 81 77 83 84 85 88 84 92 89 88 87 88 88
87 83 81 81 83 84 84 84 82 81 81 81 79 84 89 88 86 76 61 77 76 70 73 82 62 77 58 76 88 61 60 62 66 62 62 60 71 77 98 74 71 69 70 69 71 81 87 88 87 88 87 89 89 91
84 82 80 81 82 84 85 83 83 81 80 81 81 84 80 79 69 68 79 75 72 76 89 82 91 78 52 63 74 66 62 78 69 84 78 78 99 100 87 73 69 64 62 64 64 66 66 77 81 88 83 86 90 92
82 81 80 81 83 84 85 84 84 80 80 79 82 74 72 64 84 74 69 78 81 73 73 86 67 89 69 96 87 81 74 74 96 87 73 99 100 87 73 70 68 64 60 59 66 70 66 69 68 77 85 87 89 91
80 80 80 82 83 85 86 86 85 84 88 75 76 76 66 82 66 69 75 81 88 87 92 97 97 91 94 98 92 90 97 93 99 86 87 100 100 91 77 69 65 63 59 58 61 66 64 66 67 67 68 80 87 89
79 80 81 82 85 88 89 86 86 84 66 80 77 70 58 68 70 71 82 84 88 91 89 86 69 77 96 90 96 96 90 89 91 78 94 100 95 80 71 64 64 62 55 56 72 68 62 64 63 66 67 69 73 84
79 80 84 84 84 88 85 84 85 88 83 63 75 68 65 73 90 67 98 90 92 79 71 60 63 88 90 80 93 92 91 95 93 97 100 96 90 81 68 63 63 62 55 75 74 66 71 72 63 65 67 65 71 72
79 83 84 84 84 83 87 87 86 85 83 70 67 98 69 68 68 64 85 86 77 69 64 78 77 91 76 84 83 80 85 90 82 90 98 92 80 74 64 58 58 64 58 64 64 65 64 64 66 66 61 60 64 71
82 84 85 82 84 84 86 90 88 81 72 65 57 86 51 49 62 59 61 74 77 60 68 90 71 65 66 68 69 62 61 70 80 89 87 88 76 68 67 59 52 70 63 65 68 67 57 59 56 65 64 59 60 67
84 82 71 87 87 84 88 91 86 71 62 55 50 46 48 58 77 88 74 64 47 48 74 60 57 62 68 67 64 67 69 82 81 87 86 84 78 70 67 65 56 59 63 63 57 52 55 56 57 63 59 61 60 71
86 57 89 84 80 86 88 78 68 68 56 46 44 40 46 53 91 84 88 75 49 43 51 51 62 68 62 69 70 62 80 83 72 72 77 87 82 74 62 63 61 57 64 67 57 64 57 56 53 49 65 65 62 73
60 78 81 84 78 74 67 77 62 48 51 46 48 51 45 71 66 69 85 55 53 52 58 57 57 62 73 68 78 76 78 63 80 85 90 92 78 66 57 66 61 60 61 62 62 64 53 55 60 52 67 64 68 70
57 60 80 86 78 75 65 60 55 48 39 43 47 41 60 78 84 72 57 58 57 56 60 64 58 72 82 72 69 62 79 78 86 87 92 90 83 74 74 67 63 58 66 87 86 89 94 60 50 47 44 54 72 69
86 87 87 86 89 67 59 50 54 54 46 48 44 46 71 81 84 56 54 49 54 55 61 55 57 70 76 71 62 60 60 66 57 63 79 88 92 88 75 63 61 68 69 81 89 92 93 73 64 44 45 52 51 58
70 80 91 83 77 66 56 50 54 58 60 52 65 85 95 81 66 62 62 49 48 51 52 54 52 64 70 72 69 72 71 68 69 67 78 70 76 74 69 49 62 78 81 78 89 86 84 94 84 44 42 48 46 54
67 92 67 80 65 55 61 50 45 62 54 48 84 69 80 70 62 56 52 52 50 54 56 59 64 66 72 71 68 68 75 74 76 81 70 64 52 54 53 48 51 65 73 92 78 88 93 93 63 65 45 43 50 57
83 73 56 54 68 68 78 48 52 56 60 52 60 76 59 59 59 60 74 56 54 58 62 63 70 73 71 70 65 70 65 73 75 63 58 55 56 51 51 58 59 55 78 91 70 69 76 77 62 75 55 49 49 60
83 54 57 48 63 73 43 50 42 43 46 77 69 58 67 58 63 62 58 54 53 54 58 67 70 65 71 76 70 62 58 49 53 51 48 47 48 58 59 63 56 38 64 56 52 64 72 64 70 51 52 46 49 55
77 82 76 100 53 49 48 47 48 47 72 82 62 68 96 91 70 68 57 60 71 66 58 54 50 41 37 35 32 38 49 42 43 47 52 52 48 45 45 41 44 52 48 52 62 58 68 81 81 58 46 48 51 52
93 58 82 37 37 35 38 41 52 68 79 72 63 95 89 83 83 67 67 71 84 55 48 43 40 32 34 35 35 38 40 37 43 36 39 34 41 44 46 44 53 74 53 66 66 62 63 62 64 46 46 49 64 46
79 47 40 41 38 36 51 54 52 58 71 82 90 84 81 92 84 77 64 66 64 48 44 38 35 26 31 33 35 36 32 38 46 36 38 34 32 34 35 38 42 56 52 46 49 57 63 58 41 42 44 44 46 45
39 38 40 41 46 35 37 38 54 77 87 92 92 84 69 70 72 58 53 60 50 39 31 29 32 26 28 30 26 30 30 32 36 30 27 28 30 28 34 34 44 63 52 50 44 46 52 44 41 41 43 46 50 48
39 32 34 41 36 34 44 49 85 90 94 93 89 87 74 60 48 47 59 55 48 31 29 28 26 24 25 26 27 23 24 26 38 40 37 34 33 33 35 34 42 38 36 34 62 51 46 45 44 42 43 45 46 44
31 24 29 30 34 40 50 43 77 94 97 94 94 85 58 52 52 56 58 50 44 38 25 21 22 25 22 22 23 24 21 21 24 29 32 32 30 28 34 36 34 32 34 35 35 38 58 49 52 43 45 46 48 48
22 23 29 29 38 60 66 57 62 90 95 94 90 81 68 52 61 50 46 47 36 31 24 22 20 19 18 21 28 26 26 30 32 34 27 25 26 33 34 38 35 36 39 39 38 38 42 43 43 46 43 43 42 42
25 29 28 55 70 74 79 81 76 79 92 93 76 58 56 57 54 53 48 42 38 32 41 27 22 21 20 24 28 35 48 37 41 41 37 32 34 39 37 32 29 32 36 33 35 35 36 38 39 39 38 41 46 44
37 41 42 56 67 75 87 84 70 84 90 86 76 52 48 50 56 45 45 41 38 26 25 24 22 25 35 33 40 43 46 45 65 78 74 72 68 53 36 34 33 32 31 33 31 32 35 37 38 43 44 44 43 44

GFSWCAN_sfc_rhum_060.txt.gz
RH
96 93 90 88 84 85 86 85 82 84 85 83 83 86 86 87 88 94 91 86 86 95 87 54 46 65 74 77 88 74 78 84 95 95 90 92 93 92 96 90 83 93 97 97 97 97 98 68 67 83 89 85 76 76
96 92 90 86 83 84 87 86 81 85 85 84 82 86 88 88 88 87 96 82 84 94 78 60 54 44 44 50 72 79 77 85 91 96 95 96 95 92 94 92 88 95 94 96 98 94 80 87 92 88 86 85 79 77
95 91 89 85 82 83 86 86 82 81 84 84 83 83 88 89 88 89 97 94 95 96 86 78 67 48 47 44 52 80 89 79 87 90 96 94 95 97 98 93 88 91 93 99 98 80 84 80 82 80 80 85 76 77
95 92 88 83 81 83 85 87 83 81 81 81 83 84 87 89 87 85 97 95 93 96 94 84 46 54 39 47 44 46 60 84 90 95 96 94 95 94 98 92 94 91 95 90 94 90 89 87 84 85 86 83 83 78
95 91 87 82 81 83 85 88 83 81 81 80 82 86 87 89 88 94 98 95 88 85 94 96 78 61 54 42 42 47 80 92 97 95 95 95 84 96 93 93 92 96 94 99 98 87 94 91 88 82 89 86 86 89
94 91 84 81 81 83 85 88 85 80 80 80 81 86 88 90 88 97 96 82 74 76 90 99 74 64 51 46 49 53 63 82 91 96 97 86 68 80 99 99 86 94 93 90 94 88 91 90 90 84 89 85 84 87
95 90 83 80 80 82 85 87 88 85 81 80 81 83 89 91 97 97 94 92 87 79 88 95 92 79 76 75 76 72 74 81 75 82 90 90 82 84 96 98 83 92 89 93 89 91 94 86 92 86 89 86 83 85
94 88 81 79 80 81 84 86 87 87 82 80 80 82 88 92 93 96 86 82 86 90 83 95 87 85 76 90 92 96 94 86 76 82 86 89 93 88 96 85 84 85 84 85 84 92 86 86 89 93 92 88 88 88
92 84 78 79 80 81 83 85 87 87 83 82 83 86 96 97 97 94 82 79 74 82 98 97 96 92 90 100 99 98 98 97 94 94 92 89 100 92 80 82 82 76 81 79 76 78 80 87 88 89 92 88 92 90
87 82 78 80 80 82 84 85 87 88 84 82 96 97 96 89 80 77 89 95 96 96 97 99 95 96 92 97 96 96 99 99 98 94 90 100 100 89 83 76 72 72 65 62 69 74 72 74 76 79 82 89 93 92
82 78 79 80 80 83 86 90 90 87 90 99 98 96 92 86 94 96 96 94 98 100 98 98 98 97 95 95 97 96 97 96 100 98 97 100 98 94 80 78 77 73 66 60 55 61 68 74 78 74 74 86 90 90
78 77 78 79 81 84 90 86 88 95 98 96 96 94 94 95 92 95 92 89 95 91 95 96 92 98 95 97 95 94 96 96 100 96 95 100 98 89 80 72 71 64 66 63 79 76 74 74 75 70 71 73 76 86
77 77 79 81 82 82 90 86 87 89 93 97 97 93 90 84 88 87 94 94 95 93 95 98 94 96 97 96 95 95 87 91 95 99 100 96 93 90 92 82 71 67 68 77 81 80 78 77 74 72 72 70 71 75
78 79 81 83 84 83 86 89 85 89 99 96 92 100 94 91 79 82 92 90 84 87 92 95 94 96 96 94 94 90 91 96 95 97 98 96 92 92 89 77 74 68 65 71 75 79 78 77 72 72 71 67 72 76
79 82 85 85 85 85 88 91 87 93 99 95 87 93 79 66 90 92 92 95 90 93 96 95 95 88 89 82 91 79 82 84 91 92 94 96 84 83 82 60 78 72 69 79 71 71 70 67 62 68 70 68 71 84
82 82 81 86 87 87 87 93 92 98 96 90 85 76 65 79 93 95 91 90 77 78 88 79 76 80 85 84 83 82 83 90 86 94 94 92 84 85 74 65 70 72 75 72 70 72 74 69 60 62 73 73 83 87
83 74 89 83 83 89 90 97 97 95 90 75 75 64 70 89 95 95 93 89 82 65 66 73 76 81 82 86 83 79 86 88 92 93 95 90 88 91 96 73 62 70 74 78 79 79 75 71 69 62 75 79 87 88
78 92 83 84 79 88 97 99 93 83 85 79 75 69 84 96 95 94 95 90 75 71 74 74 76 79 83 83 87 87 91 88 92 94 93 92 92 92 94 92 72 74 80 90 87 84 74 82 87 73 85 87 88 88
70 73 80 85 75 78 92 91 90 82 68 66 70 73 91 96 96 95 86 74 71 76 74 80 71 86 87 90 85 82 89 90 89 94 91 90 92 91 88 87 91 88 91 92 94 97 97 89 90 82 81 83 87 90
85 86 88 86 86 89 84 83 81 83 79 68 90 95 97 96 95 92 82 80 75 75 70 70 73 83 86 84 81 78 88 85 85 94 94 92 94 91 93 94 94 94 97 94 95 94 95 96 93 77 75 78 78 82
82 95 89 88 99 99 93 85 76 75 77 84 96 96 95 95 94 91 85 72 66 68 70 69 71 80 83 82 84 90 88 84 89 87 90 90 90 79 87 94 94 94 93 92 96 98 96 96 89 81 80 74 82 83
82 92 97 97 96 87 93 84 76 80 76 79 94 94 95 92 83 84 82 69 66 65 71 68 72 81 82 82 78 77 84 89 88 83 72 68 72 66 69 82 84 92 94 96 95 96 96 95 93 85 75 78 78 80
81 89 89 86 95 91 78 79 77 72 73 75 94 94 96 96 99 96 88 79 72 68 65 60 58 70 75 77 74 72 82 88 88 77 59 63 64 72 73 70 81 92 95 95 89 94 88 78 78 84 81 82 81 78
82 80 81 79 92 89 69 68 69 66 77 80 79 80 92 99 98 98 81 75 74 71 68 69 78 83 79 78 76 77 74 62 69 66 66 73 79 82 74 81 85 91 93 82 92 94 95 86 77 73 75 73 76 73
84 90 98 100 83 77 68 64 64 72 85 84 82 92 96 99 96 90 78 81 82 76 62 52 51 51 55 63 68 69 63 61 69 75 78 65 67 64 72 80 82 82 84 82 81 78 89 91 82 68 69 68 70 77
98 79 88 66 60 55 53 58 76 86 89 90 91 97 99 98 92 89 91 85 90 65 51 52 50 54 59 56 64 61 57 55 52 60 66 64 63 65 75 79 81 83 78 83 81 75 72 68 67 58 59 62 69 62
92 77 71 72 59 54 59 68 72 78 84 83 91 94 94 89 87 89 90 87 62 48 48 48 50 47 52 59 58 52 49 44 44 48 53 50 50 53 56 64 73 74 72 62 65 70 73 63 59 63 67 65 64 61
66 62 66 61 61 60 61 59 74 89 91 97 95 90 83 80 85 86 81 75 49 44 40 42 42 45 48 50 50 51 52 49 44 46 47 45 45 49 56 67 69 68 54 57 55 60 60 56 56 55 56 60 61 61
71 63 60 60 57 55 72 81 91 96 96 94 92 93 92 92 75 67 76 75 69 50 44 42 42 43 42 44 45 48 49 48 42 46 48 55 55 56 60 60 58 52 44 42 63 58 49 56 56 58 57 61 58 52
55 50 50 44 51 73 84 88 89 97 97 96 95 92 78 67 63 75 76 74 70 69 50 43 41 41 38 33 36 42 45 46 48 40 51 51 48 52 55 57 55 50 45 46 46 47 59 58 59 55 54 55 61 58
43 47 43 48 79 83 80 87 93 97 97 97 97 96 84 69 75 74 71 67 61 40 34 32 34 40 41 43 41 51 59 60 55 39 40 45 49 50 49 49 50 54 55 54 54 57 56 54 57 57 50 50 50 56
46 46 52 77 86 90 87 91 90 93 96 98 99 97 85 81 82 70 59 60 51 35 44 36 33 45 51 55 53 56 65 62 64 55 52 56 57 54 51 47 44 46 49 53 55 54 49 50 51 49 48 51 54 55
59 60 66 76 86 89 93 87 86 95 94 95 94 80 82 83 75 69 64 60 49 38 37 38 45 48 54 52 55 60 66 69 72 75 73 68 67 62 56 54 51 47 44 46 47 47 44 44 48 52 53 54 55 55

GFSWCAN_sfc_rhum_063.txt.gz
RH
97 95 91 89 85 83 85 85 83 84 84 86 84 85 87 87 88 92 92 93 83 95 90 57 51 69 77 80 87 76 80 80 94 95 96 92 91 89 94 85 88 94 96 99 95 96 96 77 73 82 88 91 74 70
97 96 91 89 84 82 83 85 86 81 83 86 85 85 89 90 89 85 94 88 92 95 74 73 59 48 53 58 76 86 75 86 90 98 96 94 93 88 90 99 88 97 92 95 92 92 84 90 88 75 77 77 71 71
97 95 92 89 84 82 83 85 86 80 84 82 84 85 87 91 88 88 96 97 97 97 94 86 69 61 53 51 56 76 93 82 89 88 96 98 98 95 97 89 84 84 93 99 96 80 84 84 86 87 77 80 80 78
97 96 92 88 83 81 83 86 86 79 79 79 81 85 87 91 88 86 95 96 97 98 98 84 62 70 53 52 52 56 65 91 90 90 97 97 98 94 98 93 97 93 94 87 92 87 87 83 88 86 84 81 82 76
98 96 93 87 82 80 83 86 86 79 79 80 80 83 88 90 88 94 98 97 95 96 97 96 85 73 68 53 50 66 70 88 96 98 95 96 82 96 97 93 96 92 92 97 96 86 86 83 83 83 88 85 79 87
98 96 93 86 81 80 82 86 87 83 78 79 81 80 87 90 88 96 96 95 93 83 97 99 84 77 65 58 58 73 70 82 82 95 97 88 69 73 98 97 88 91 92 89 86 85 88 84 85 88 92 88 84 86
98 97 93 84 80 79 81 85 87 87 84 82 82 81 86 90 97 94 92 90 93 92 87 98 96 80 82 79 74 66 73 88 80 92 95 93 80 74 95 99 81 87 81 92 89 91 92 89 94 84 89 89 87 90
98 98 91 81 79 78 80 83 86 87 80 83 83 82 86 91 93 92 87 82 89 92 90 97 96 90 81 92 90 98 97 98 100 98 92 90 93 84 97 82 81 81 85 91 91 93 88 87 92 92 91 94 95 95
98 95 86 80 78 77 80 82 84 88 85 84 83 87 97 98 97 93 80 83 75 81 98 99 99 94 91 99 98 97 99 100 98 99 97 95 99 99 87 75 82 83 86 80 79 84 88 93 90 88 90 91 96 95
97 89 82 78 78 78 82 84 85 88 86 87 95 98 97 96 81 80 85 93 95 96 98 100 97 98 90 97 96 98 96 97 100 99 98 100 100 89 80 67 77 77 80 76 81 76 78 78 79 82 81 86 91 93
90 84 78 78 78 80 84 90 88 89 87 98 98 98 97 86 95 97 96 94 98 97 99 98 97 96 95 96 96 97 96 97 100 97 97 100 100 95 79 81 82 78 75 68 60 59 67 71 77 83 83 82 89 92
84 78 76 77 79 81 86 87 86 94 96 96 96 96 97 96 96 98 97 96 99 97 97 98 93 98 96 97 96 94 95 95 94 95 95 99 96 86 86 80 74 76 76 70 71 72 72 76 79 83 86 77 80 83
76 75 77 79 80 80 86 87 86 90 93 98 96 94 95 92 99 98 88 93 94 93 95 97 96 96 97 96 94 96 89 90 94 97 99 95 90 91 90 89 82 76 69 73 78 76 77 80 80 84 85 77 78 75
74 76 79 81 83 82 82 88 87 87 96 91 94 100 98 96 94 84 89 88 83 91 95 98 96 98 97 94 95 91 92 98 95 97 93 92 89 87 88 87 85 77 71 76 80 84 83 85 84 76 82 78 78 81
77 81 84 84 87 88 89 91 87 91 96 95 95 98 94 80 89 92 95 95 94 96 97 97 94 92 94 88 93 84 91 90 92 93 92 94 88 89 90 87 79 80 78 76 79 77 74 73 74 69 75 76 82 92
81 81 80 86 87 89 91 94 91 98 98 98 95 90 79 88 87 94 94 93 92 95 95 86 86 77 86 87 86 83 85 87 84 93 94 94 91 90 93 90 86 80 79 77 82 74 75 84 78 73 78 82 91 90
82 73 87 82 83 89 93 98 98 98 97 93 96 88 81 88 88 93 95 89 92 71 69 77 74 80 88 88 86 83 86 86 91 92 95 92 91 92 93 90 89 86 83 86 76 80 82 83 80 73 83 92 92 91
83 91 82 80 76 94 98 97 98 88 98 96 91 79 81 93 93 96 97 96 85 73 72 66 76 80 83 84 86 88 92 91 90 95 95 92 93 91 94 94 94 96 96 96 92 91 93 89 88 81 89 94 94 91
71 76 79 82 72 71 93 97 97 89 83 86 85 89 96 97 97 95 95 93 91 87 74 76 72 83 88 91 84 84 90 83 92 94 94 93 92 92 94 96 93 94 93 94 96 98 97 93 93 96 97 96 95 96
87 87 90 88 80 83 80 92 94 91 88 79 91 96 96 95 96 96 94 93 83 82 77 68 66 76 87 83 83 72 88 92 92 92 92 92 97 91 91 93 95 94 98 96 97 96 95 89 93 90 82 87 91 92
84 91 88 93 98 92 99 96 92 91 89 91 96 94 95 97 94 92 93 94 90 88 87 67 65 66 82 81 87 92 90 90 88 89 92 93 92 89 88 95 94 96 97 97 98 97 95 97 95 95 76 82 92 92
76 92 98 98 98 96 99 94 82 80 83 84 95 96 97 98 98 97 99 93 79 84 80 83 73 82 82 82 83 88 89 86 88 83 76 76 71 85 92 80 78 94 84 97 95 95 95 97 96 91 85 83 87 89
82 94 98 98 99 98 94 94 87 81 74 81 95 97 99 98 97 98 97 91 75 73 71 60 66 78 83 84 83 91 91 85 89 81 76 80 79 81 88 94 94 90 94 96 96 97 95 84 92 90 83 87 83 88
85 91 93 96 99 97 81 77 86 78 86 92 93 90 97 98 97 97 95 82 74 80 64 74 69 62 73 81 83 78 76 81 82 82 82 79 86 91 93 95 96 95 96 94 96 96 96 95 93 84 84 82 85 80
90 88 99 100 92 92 82 69 70 85 83 85 92 96 97 98 98 94 90 79 80 65 71 63 62 67 72 85 84 76 74 72 76 78 82 80 82 85 86 89 91 93 93 81 84 84 87 87 87 81 79 84 82 79
99 87 91 83 72 70 61 64 72 84 90 91 92 99 98 97 96 92 93 88 86 73 54 59 65 76 78 72 72 69 66 72 71 72 77 76 70 74 81 83 85 83 86 90 81 75 75 72 70 66 69 72 77 66
96 84 81 83 70 62 60 71 84 90 84 86 94 98 97 91 87 86 92 80 72 55 56 62 57 59 62 69 66 60 59 55 57 60 65 68 68 71 74 77 77 76 79 71 71 69 71 70 69 70 70 70 69 63
85 77 78 71 70 71 63 65 82 84 89 95 94 92 91 85 87 84 90 80 49 50 52 56 58 53 57 56 54 56 59 58 53 51 50 53 62 67 75 75 68 71 63 66 66 63 62 62 63 63 62 64 67 67
84 81 69 66 62 64 71 81 90 94 95 96 92 94 90 96 79 79 83 72 50 45 47 50 53 57 58 60 60 61 47 40 42 45 48 57 59 58 70 64 55 48 49 54 71 66 58 61 61 62 57 59 60 57
65 70 60 53 55 70 86 93 93 97 98 97 95 93 84 74 75 84 85 81 59 45 43 42 48 45 46 45 53 62 63 50 37 40 50 56 56 53 63 62 56 48 52 52 53 61 68 62 61 56 56 60 63 59
56 56 48 52 83 89 95 98 98 97 97 98 97 96 90 79 77 82 76 74 73 69 59 50 48 42 37 53 56 55 56 63 60 46 46 49 55 59 59 61 59 52 54 56 61 62 61 62 61 57 52 55 60 60
56 48 50 84 93 95 90 93 96 96 96 98 98 98 92 85 78 74 73 65 44 37 50 48 48 51 49 53 59 60 64 61 50 49 50 56 57 58 57 57 58 57 58 58 62 59 54 55 54 56 60 59 58 60
70 78 81 90 94 92 92 91 94 94 95 96 96 94 89 85 80 75 66 60 43 31 38 52 61 64 61 59 62 68 72 68 69 72 70 70 67 64 57 55 54 54 54 57 58 52 48 50 52 56 59 61 62 61

GFSWCAN_sfc_rhum_069.txt.gz
RH
96 96 96 96 92 86 81 82 82 85 83 84 84 87 87 88 89 71 71 79 63 62 52 50 43 56 56 52 58 59 57 54 50 77 82 92 92 87 93 84 75 70 85 91 84 90 84 53 52 61 60 63 59 58
96 96 96 96 93 88 81 81 83 86 83 82 84 87 88 91 90 75 62 71 77 66 53 62 47 42 41 42 50 61 53 62 52 77 82 82 91 80 85 87 71 91 81 94 79 74 58 58 50 52 51 56 57 58
96 96 96 97 94 89 82 81 83 85 82 81 81 84 88 91 91 78 68 78 69 72 55 55 51 50 49 42 34 46 55 56 64 54 55 74 90 75 90 86 79 73 71 93 85 60 61 60 59 58 58 56 55 51
96 96 96 97 95 90 81 80 84 85 82 80 80 81 86 90 91 83 71 75 73 73 64 48 49 52 48 42 40 41 52 59 56 54 59 64 72 69 78 75 85 71 77 82 82 65 63 61 60 58 60 60 60 57
96 96 96 97 96 89 80 80 84 85 82 80 79 80 83 88 92 84 84 76 76 70 69 64 55 54 51 48 45 49 51 64 81 74 63 75 59 69 67 75 92 72 77 94 96 63 61 55 62 61 63 63 62 65
97 97 96 98 96 89 80 80 83 85 86 81 80 79 81 87 90 74 74 72 72 73 71 67 58 61 58 49 53 55 57 63 66 90 96 83 67 92 97 97 66 67 65 62 56 59 58 56 57 60 62 61 60 62
97 97 96 97 96 93 80 80 82 84 86 84 82 80 81 88 87 64 67 70 83 74 67 68 56 58 65 56 55 54 66 87 90 97 95 86 94 96 97 100 68 61 59 66 60 64 66 64 59 59 64 60 65 65
97 97 96 98 97 90 79 79 81 83 86 80 80 81 85 91 86 69 63 84 79 68 68 77 62 68 66 76 85 86 89 93 95 87 93 96 99 98 100 80 84 70 60 62 63 61 54 61 62 65 63 68 70 66
97 97 96 98 96 83 78 78 81 83 87 81 79 85 86 80 74 70 84 85 73 73 81 86 90 69 72 91 90 94 90 98 94 94 98 97 99 100 92 82 79 69 65 60 60 58 58 66 62 64 65 65 68 63
97 97 98 97 88 78 78 82 83 86 88 83 87 84 83 76 84 77 69 77 75 74 87 92 86 91 80 86 85 88 90 85 90 97 88 97 100 78 78 92 90 80 64 61 62 65 63 65 58 61 62 60 61 61
98 98 94 84 77 78 81 85 90 89 86 91 87 87 84 85 71 80 85 81 90 90 90 93 92 81 85 88 84 88 88 88 98 88 86 95 98 80 74 74 72 70 64 61 50 45 48 52 51 57 53 56 60 63
95 90 82 76 76 79 81 87 86 88 84 89 84 86 80 78 83 88 89 91 90 89 88 88 86 87 90 88 88 93 84 90 80 79 86 100 85 66 66 67 65 65 60 57 58 59 56 55 51 54 56 55 55 60
81 78 77 78 78 78 79 87 89 89 89 85 80 79 79 82 96 87 95 93 87 79 80 91 88 90 96 86 90 87 80 83 80 89 100 89 70 67 69 66 64 61 63 62 62 61 60 60 58 59 61 60 60 63
74 75 77 79 80 81 81 87 90 86 83 65 81 99 86 89 87 74 80 72 70 72 83 85 91 93 85 82 81 81 81 84 77 88 94 69 73 71 72 67 70 64 65 64 64 63 62 64 63 64 62 60 62 66
80 81 82 83 88 89 87 91 87 82 80 68 83 95 87 68 70 74 79 82 85 82 86 92 87 79 78 80 76 72 82 88 82 76 68 70 73 79 75 68 68 65 68 69 69 67 66 64 66 67 65 57 60 70
84 82 81 87 90 93 92 87 84 85 85 77 82 80 69 73 71 76 80 81 82 86 80 72 75 71 69 66 76 76 70 71 58 70 68 76 80 80 82 74 72 71 72 70 70 73 74 82 83 76 67 58 60 70
82 70 84 81 91 94 92 84 84 82 69 77 80 68 57 70 71 66 75 76 82 67 69 63 70 67 65 75 77 62 70 60 61 66 72 83 84 85 81 80 79 73 72 73 74 79 82 80 78 79 81 74 62 65
84 82 79 79 82 89 86 88 85 84 85 78 69 48 69 79 77 80 85 87 84 72 71 64 66 67 89 92 72 61 61 62 61 80 82 86 85 83 82 80 72 70 76 76 77 75 74 79 90 88 95 93 77 68
67 71 81 82 70 63 62 86 86 73 68 67 68 69 78 85 86 85 78 75 87 89 74 67 77 92 96 82 62 52 65 57 64 82 82 83 83 81 78 74 74 75 78 81 81 83 86 85 94 98 98 95 77 55
86 90 92 89 74 68 62 63 84 89 78 63 75 80 84 84 76 77 72 87 94 92 80 87 91 95 90 62 56 54 56 59 56 57 65 64 72 77 77 78 71 76 77 78 76 86 78 70 82 97 95 80 61 60
80 86 86 78 80 76 78 82 84 80 73 84 84 85 83 85 74 69 82 83 93 92 97 98 98 78 66 66 64 61 65 59 57 53 57 56 63 60 63 65 64 57 56 68 74 80 88 89 86 92 96 68 61 57
65 89 92 94 90 85 90 76 68 62 62 59 81 85 83 83 84 90 96 88 90 94 96 92 71 65 71 73 69 67 72 70 74 60 66 57 47 52 58 55 48 55 63 76 60 78 94 98 86 89 85 86 80 53
81 88 91 94 96 97 87 79 84 70 68 62 84 84 88 88 86 87 85 82 85 81 75 70 79 76 74 76 67 64 64 64 52 49 48 49 54 56 53 52 52 64 67 76 62 69 94 99 91 75 66 63 46 45
81 91 96 88 93 91 78 81 76 74 74 83 83 75 86 89 88 83 72 65 59 61 68 82 79 66 69 72 57 56 57 49 48 50 50 46 49 57 52 52 51 58 65 52 59 65 68 81 89 72 56 47 43 42
97 93 96 100 90 93 86 74 68 76 70 74 75 82 86 87 83 87 84 55 66 70 89 68 58 52 52 56 55 56 61 43 43 46 50 46 46 44 48 48 49 51 45 40 47 50 64 66 64 62 60 52 46 45
96 73 97 80 71 74 57 61 65 63 73 71 77 89 86 84 83 89 81 81 83 75 73 58 51 49 47 42 44 44 48 46 46 37 46 41 41 38 44 44 43 48 46 47 42 45 48 47 48 46 43 48 68 40
93 67 62 67 65 61 59 55 59 75 70 70 85 90 86 80 85 82 82 74 70 56 50 50 44 36 38 42 43 44 45 45 46 42 44 42 42 44 42 42 44 48 44 42 40 41 45 43 42 43 43 40 38 40
74 72 68 60 66 62 60 54 56 65 74 89 85 91 93 86 78 67 58 59 45 46 45 44 42 35 34 35 36 43 42 40 41 42 41 39 42 43 45 37 40 77 46 41 40 39 38 39 38 38 39 38 36 35
67 62 66 66 56 51 53 53 59 78 89 86 76 83 83 83 69 63 68 47 40 38 39 39 42 40 39 40 40 36 36 32 31 37 36 34 37 42 35 32 35 37 37 39 84 58 46 37 37 36 37 35 36 35
53 54 55 52 48 42 45 65 78 85 90 83 80 74 64 59 57 61 48 40 37 33 30 30 35 35 34 34 36 38 34 29 25 28 32 32 30 32 38 33 30 32 35 36 36 38 68 42 46 34 37 35 35 35
49 53 50 43 41 61 70 78 84 85 84 80 82 75 61 58 58 58 51 39 32 33 33 32 35 34 34 33 33 35 34 33 33 32 29 25 27 31 33 32 30 34 36 37 36 35 34 35 34 34 36 37 39 40
57 53 47 49 68 84 82 84 76 82 84 84 80 72 65 60 58 56 57 51 40 34 41 32 29 30 34 30 30 29 54 26 33 30 34 30 30 32 33 32 30 28 33 31 34 35 35 36 33 35 36 39 40 41
56 49 50 59 80 86 87 87 77 79 80 81 81 67 62 57 64 55 54 53 48 36 35 40 34 30 36 36 36 35 50 35 43 54 57 55 53 46 32 31 32 34 35 34 33 34 36 35 34 37 38 40 41 41

GFSWCAN_sfc_rhum_072.txt.gz
RH
96 97 96 96 96 93 85 79 79 82 83 81 83 86 87 87 89 60 48 57 48 33 32 33 31 39 36 32 32 43 37 34 28 47 58 84 83 80 85 68 54 52 72 78 56 65 83 36 41 48 50 43 39 40
96 97 96 96 97 95 87 79 81 83 83 79 81 83 88 90 91 79 40 49 52 43 39 38 30 31 33 33 30 39 34 36 29 39 50 56 81 55 70 81 47 80 59 86 62 64 47 43 40 42 35 42 41 40
96 96 96 96 97 96 89 79 78 82 82 79 79 81 87 90 89 78 44 50 47 40 37 36 36 33 29 30 26 32 31 36 40 38 29 34 70 47 77 72 59 47 47 83 69 36 44 44 40 40 39 38 39 36
96 96 96 96 96 96 90 78 77 81 82 79 79 79 84 88 89 87 48 47 48 42 33 36 36 40 35 30 33 28 35 36 37 35 35 39 52 41 49 56 70 45 51 60 64 48 44 42 41 42 43 42 42 39
96 96 96 96 96 96 89 78 79 80 82 79 78 78 80 85 90 66 50 47 49 52 36 31 35 35 33 36 37 35 33 45 50 46 49 57 41 46 42 44 72 44 54 83 84 44 51 38 44 45 47 46 45 44
96 97 96 96 96 96 86 77 77 80 84 82 80 77 79 83 88 51 53 49 46 49 48 36 35 45 42 39 40 43 38 38 37 57 52 79 52 61 85 92 54 40 40 41 42 38 39 40 42 43 45 46 44 44
96 97 96 96 96 95 92 79 76 78 83 83 82 78 80 84 63 49 54 59 70 52 46 37 38 44 47 43 38 38 42 49 43 64 74 86 86 91 97 99 52 48 45 48 44 42 50 43 43 43 44 45 50 44
96 96 96 96 97 96 90 77 76 77 82 81 79 79 83 89 84 55 49 79 71 50 44 46 38 44 48 46 54 43 48 53 56 58 76 84 96 97 100 68 57 64 57 49 48 42 34 38 40 44 45 47 50 49
97 97 96 96 98 94 83 76 77 78 83 80 78 81 68 61 51 53 83 83 55 56 55 58 58 48 46 52 52 63 54 87 76 77 85 84 96 100 75 61 67 68 65 56 48 45 40 44 44 46 48 49 50 44
97 97 96 98 95 86 76 78 78 82 87 80 73 62 62 58 88 75 63 61 58 53 50 65 50 63 47 48 62 66 63 67 80 83 74 95 100 61 54 58 70 73 55 49 52 54 46 45 43 45 44 42 42 40
96 97 98 93 83 76 77 80 88 87 85 64 58 61 62 82 57 62 74 65 75 72 55 55 60 51 51 69 79 61 67 73 84 73 80 97 93 53 50 60 65 58 48 51 57 50 38 39 39 42 40 41 41 41
96 91 84 78 75 75 78 84 90 71 56 73 67 66 58 60 67 80 78 76 82 66 58 54 53 55 64 56 71 73 76 68 70 53 76 100 62 48 52 54 55 52 50 45 45 47 43 41 40 41 41 41 41 40
78 76 76 76 76 77 80 89 87 89 83 62 59 60 60 66 96 80 82 76 68 54 52 69 71 67 80 67 72 70 68 64 50 71 98 78 52 49 52 51 51 51 51 50 50 48 47 47 45 46 46 43 43 43
74 76 77 78 79 78 79 89 90 79 65 50 56 98 73 72 67 51 52 56 46 44 49 68 75 82 73 69 64 71 63 58 69 77 90 44 55 52 54 53 56 50 50 52 54 56 56 55 56 54 51 49 48 53
83 82 82 83 87 88 86 88 91 67 58 51 50 80 49 40 41 42 46 48 48 43 61 65 60 70 73 72 56 57 64 68 60 63 36 44 57 59 58 54 54 52 53 53 52 52 53 55 57 60 62 57 55 54
83 80 71 88 91 92 91 83 73 62 57 52 53 48 37 41 32 40 46 62 53 51 57 63 65 66 66 58 63 66 58 57 35 34 49 58 65 66 65 60 58 54 52 49 51 55 56 61 70 81 85 80 61 57
80 72 82 90 91 90 89 72 61 63 51 52 41 34 32 29 31 30 37 39 52 61 68 61 69 63 54 83 82 56 59 42 38 47 57 73 69 69 62 58 56 51 51 51 52 62 57 51 53 65 76 84 81 74
83 72 79 86 82 83 66 73 66 65 64 45 43 28 31 36 40 39 44 58 62 64 62 65 49 62 81 97 86 50 38 34 56 62 49 63 66 65 53 54 54 55 54 56 56 60 64 67 73 74 85 83 74 92
74 64 80 82 65 50 46 63 71 54 44 38 38 35 38 41 46 52 53 52 53 59 61 94 93 95 97 95 66 42 35 39 51 48 56 65 62 60 59 53 49 49 53 58 59 54 54 70 88 91 98 97 91 94
85 89 92 91 76 52 57 48 65 79 58 42 42 46 48 54 55 47 46 54 67 87 95 94 93 94 84 58 44 40 37 40 36 46 55 47 46 53 55 43 38 44 39 44 43 67 41 76 70 88 98 95 90 72
74 72 83 71 58 54 55 51 54 54 46 48 41 54 47 51 73 46 55 70 76 76 93 97 84 62 63 62 47 52 51 42 41 38 38 37 36 37 38 37 35 30 32 35 44 70 63 79 78 84 87 83 75 62
51 86 75 78 76 71 68 54 51 44 45 36 42 46 48 65 66 57 74 72 71 96 98 92 86 79 66 61 62 57 58 56 51 42 52 48 33 34 33 30 31 34 38 45 66 79 83 88 72 77 61 50 49 41
76 69 66 84 93 92 76 57 65 50 55 49 53 64 66 70 60 58 73 70 66 66 66 61 71 62 61 62 58 54 52 46 35 33 33 33 33 32 29 33 32 36 41 50 54 64 68 84 66 58 43 33 31 32
76 74 86 80 83 79 62 75 59 57 52 68 64 53 67 73 64 76 79 71 50 50 68 83 87 56 53 56 43 43 40 31 31 33 32 31 30 32 32 32 32 33 32 51 51 56 57 56 69 36 31 30 29 30
92 86 81 100 78 81 76 56 54 56 56 49 53 61 72 61 77 79 76 61 60 54 71 76 50 45 41 39 33 38 38 26 27 33 31 28 28 30 33 31 32 30 25 28 31 34 48 47 38 36 36 32 34 35
95 64 90 60 51 58 42 46 46 49 47 46 55 67 61 68 73 73 67 62 73 58 58 44 41 37 31 28 29 30 31 27 27 28 30 24 24 27 30 31 30 33 27 26 29 31 32 32 32 35 34 37 62 39
80 49 46 45 45 43 44 38 36 41 46 50 65 82 92 91 72 57 54 44 52 39 38 34 28 24 25 26 27 27 27 28 32 28 27 26 27 28 27 29 34 32 28 27 28 29 31 32 30 30 32 33 32 31
50 46 49 42 44 38 46 40 38 38 42 62 66 66 68 74 68 52 43 41 30 29 27 23 20 19 21 24 24 26 25 25 28 27 26 25 27 28 31 29 31 75 32 30 29 27 28 28 29 30 29 29 29 28
50 40 41 46 39 33 34 32 30 41 68 68 62 62 60 59 48 45 41 28 22 22 22 23 24 22 23 24 24 24 24 22 28 34 32 30 31 28 26 26 27 26 26 29 80 57 38 32 31 29 30 29 28 28
42 33 38 34 34 30 24 25 41 52 59 57 54 50 45 46 43 41 35 26 23 22 20 19 21 22 23 24 26 26 23 21 20 22 25 25 25 23 24 25 25 25 26 28 28 31 68 41 45 29 31 28 28 30
30 34 37 33 29 27 31 36 49 60 59 51 50 58 44 44 42 41 38 28 21 20 21 21 22 21 21 22 24 28 26 22 23 24 22 19 21 24 25 25 25 26 27 27 27 26 26 27 26 29 30 32 35 36
34 37 33 35 34 49 55 56 50 57 66 71 57 50 47 47 48 44 40 38 29 24 32 27 23 23 21 20 20 21 51 19 23 24 27 22 22 24 24 23 23 24 26 25 26 25 28 29 27 30 29 35 35 35
42 33 32 30 33 57 64 64 59 60 60 58 56 51 45 42 49 43 44 39 34 27 26 27 24 22 26 27 25 24 38 22 30 46 49 51 48 38 23 22 22 24 26 26 24 25 29 31 28 33 34 35 36 36

GFSWCAN_sfc_rhum_075.txt.gz
RH
97 96 95 95 95 96 92 80 74 78 82 80 81 84 86 86 88 60 34 42 40 25 24 22 22 29 26 24 26 31 27 25 22 35 44 70 74 65 67 57 46 41 61 66 43 48 70 28 30 35 44 36 32 30
96 96 95 94 95 96 95 83 75 78 81 78 80 82 86 88 89 83 32 38 39 36 29 24 20 22 25 26 23 26 29 26 23 31 34 41 68 40 52 71 36 66 43 82 48 58 45 36 34 38 32 38 33 32
95 94 94 95 95 95 96 86 74 76 80 78 78 80 84 88 87 83 35 37 34 32 27 24 25 24 20 21 20 30 25 28 28 30 23 27 50 35 59 56 44 34 34 65 48 35 37 35 31 30 28 29 30 27
92 92 94 95 96 95 97 85 72 76 80 78 79 78 81 85 87 87 38 34 36 31 28 28 24 29 24 20 25 24 28 28 28 27 29 35 52 35 41 41 53 38 36 45 45 37 34 33 33 33 32 31 31 29
93 92 93 95 96 95 96 83 72 76 79 78 79 77 79 82 86 67 38 34 36 44 33 25 24 24 24 26 28 28 28 34 32 35 36 42 42 42 38 41 55 32 42 66 74 38 42 40 34 33 37 36 35 34
95 95 95 96 96 95 96 80 71 75 80 81 80 78 79 81 84 44 43 35 34 37 41 30 28 31 31 30 32 33 33 35 41 49 38 60 44 45 66 83 45 36 40 40 39 34 33 32 32 34 36 36 34 35
96 96 96 96 96 96 93 83 74 75 80 82 81 78 80 82 60 45 54 54 67 40 39 29 29 33 35 32 29 32 35 38 37 51 52 47 72 56 91 97 46 38 38 51 38 39 39 34 36 32 34 35 43 36
96 96 95 96 95 97 93 88 76 75 80 82 78 80 82 85 80 48 44 75 66 44 34 37 32 36 32 39 50 31 43 47 51 49 58 78 72 70 98 57 46 50 49 48 48 37 34 32 31 36 35 37 40 40
97 96 96 96 96 97 91 83 73 74 81 82 78 80 64 60 45 51 80 77 46 53 53 41 44 69 36 34 40 42 43 79 61 77 78 67 82 99 67 50 46 49 56 55 50 52 37 34 35 36 38 38 40 38
96 96 96 96 98 93 87 77 74 77 85 80 69 51 48 52 83 69 57 60 63 50 41 49 32 53 35 40 59 73 67 58 81 68 52 80 96 58 50 42 46 52 53 57 66 73 53 43 36 37 37 38 36 36
96 96 98 96 90 85 78 81 87 88 88 53 44 45 52 80 48 53 67 67 64 57 38 37 37 52 37 60 72 54 59 50 77 65 64 85 86 47 36 42 47 50 53 42 40 39 40 43 36 36 35 37 42 43
92 89 87 82 77 75 77 82 89 70 42 63 62 56 47 48 55 73 70 63 70 55 41 39 45 38 49 43 63 55 59 53 58 45 66 98 59 46 41 39 38 44 45 43 39 39 39 40 36 42 38 36 36 37
76 74 72 68 71 73 79 85 90 84 85 49 49 48 48 63 92 75 72 63 53 42 41 50 60 52 52 46 65 64 58 56 38 55 97 67 50 40 40 39 38 38 42 44 46 51 54 54 54 56 55 49 36 45
78 76 76 75 74 76 78 88 87 76 56 45 46 98 57 63 52 42 45 57 38 34 40 59 76 68 56 65 66 65 60 46 59 72 79 35 58 45 43 41 42 41 38 39 42 43 46 49 51 56 57 49 52 46
82 82 79 81 85 85 84 88 88 55 45 44 37 75 38 28 27 41 44 39 38 34 41 70 80 80 79 78 60 66 55 58 53 54 43 83 63 52 49 44 43 42 41 42 44 51 51 46 46 46 50 62 57 56
81 82 68 86 89 89 89 84 64 45 44 43 42 38 25 24 21 22 34 32 28 34 49 72 70 74 72 69 68 74 67 64 38 40 36 48 60 55 56 54 46 41 41 38 35 36 38 40 43 46 46 54 58 67
82 70 87 88 87 86 83 61 47 51 42 42 33 24 24 24 21 17 19 22 34 46 72 75 73 67 61 79 90 77 66 44 37 34 49 59 62 63 49 45 44 42 42 40 42 45 46 43 48 46 49 51 56 65
77 71 86 87 83 76 54 52 46 44 48 34 30 24 22 22 26 27 29 47 47 64 65 66 53 86 95 98 96 76 52 40 37 40 48 64 63 55 43 46 45 42 42 43 45 45 47 53 54 47 53 56 64 85
68 73 78 79 73 52 39 46 48 46 36 27 25 24 24 26 30 30 34 46 54 51 59 61 88 93 93 78 60 47 40 32 37 46 48 56 53 53 49 41 38 40 45 45 41 34 43 67 71 60 83 96 92 95
83 83 89 88 76 46 47 40 46 58 46 31 29 30 30 31 31 33 40 49 66 71 82 88 90 64 53 43 43 47 38 28 28 44 45 46 38 48 45 37 29 34 27 31 38 61 38 66 75 78 96 96 94 86
84 66 82 69 55 48 44 40 42 38 34 35 29 30 38 50 45 61 62 64 74 83 80 78 53 42 42 49 44 35 42 36 31 30 30 26 28 27 28 27 26 23 24 28 42 47 55 74 73 92 94 95 87 83
51 84 49 65 63 60 57 43 41 38 39 33 33 33 41 62 69 74 52 75 82 58 56 54 75 76 80 70 51 48 52 48 44 33 45 41 26 25 24 23 24 30 32 37 42 48 63 84 62 63 41 45 51 35
76 58 46 59 75 80 72 42 52 41 47 46 43 60 75 76 60 46 75 80 65 52 59 62 64 76 75 57 54 50 45 39 28 26 25 24 26 25 23 24 23 32 35 36 41 51 55 74 53 46 33 35 35 35
77 53 60 63 69 75 47 65 55 43 40 54 58 51 59 67 53 53 68 64 55 50 61 82 66 57 49 55 39 36 32 25 25 26 25 24 23 27 25 23 23 24 30 29 40 57 55 35 61 31 31 33 30 30
78 72 70 100 59 63 52 48 49 49 54 56 54 58 78 64 69 65 64 50 61 56 50 64 74 52 42 30 27 29 32 21 22 26 25 22 23 24 24 23 24 24 21 24 30 34 34 33 32 29 27 26 33 34
95 58 85 45 39 46 35 38 47 51 38 40 53 59 70 90 85 70 66 50 58 52 44 44 44 34 26 23 24 24 24 20 23 23 24 20 20 22 24 26 26 25 22 23 24 28 29 28 27 29 30 37 56 33
78 44 39 33 34 34 34 32 32 33 37 47 62 62 55 67 64 53 40 38 41 37 32 27 24 20 20 21 22 21 20 22 26 22 22 21 20 22 22 24 27 25 22 23 24 26 28 28 28 28 28 26 26 26
45 36 37 32 32 28 34 35 36 35 33 39 43 61 57 54 65 46 34 34 28 25 22 19 16 16 17 19 19 20 20 21 24 21 20 20 22 21 26 24 26 63 30 28 29 24 25 26 26 25 26 27 27 26
43 33 29 36 33 29 29 28 29 23 42 50 58 63 58 42 39 34 31 23 19 18 17 16 17 16 18 19 19 18 18 18 24 31 30 25 26 24 22 22 23 24 23 24 67 48 36 29 28 26 27 27 28 28
40 28 30 30 29 29 24 18 22 28 34 33 42 46 39 35 32 29 24 21 20 19 17 16 15 16 18 18 19 20 17 16 17 19 22 22 22 19 21 22 22 22 23 24 24 27 58 36 39 29 29 26 28 32
25 24 29 28 26 21 18 19 25 31 38 38 38 47 49 37 35 31 26 22 20 19 18 18 18 17 18 19 20 22 20 17 18 20 20 16 17 20 21 22 21 21 23 24 23 23 23 25 25 28 29 32 34 37
29 31 29 31 28 26 34 34 42 60 54 50 52 41 38 38 40 37 32 28 23 22 30 25 20 20 18 17 17 18 47 16 18 20 23 18 19 22 21 20 20 21 24 23 24 23 25 27 24 27 27 32 33 35
32 25 25 24 25 30 35 46 45 55 57 55 51 37 34 34 50 41 34 31 31 27 22 22 21 21 23 23 21 20 32 19 28 44 54 54 47 34 21 19 19 21 23 23 22 22 27 28 27 30 31 32 33 34